Flag for USA

Past Weather in Cookeville, Tennessee, USA — Yesterday and Last 2 Weeks

Now
85 °F

Passing clouds.


Feels Like: 88 °F
Forecast: 89 / 73 °F
Wind: 6 mph from North

Location: Crossville Memorial Airport

Current Time: Jul 16, 2020 at 12:29:46 pm

Latest Report: Jul 16, 2020 at 11:53 am


Visibility: 10 mi

Pressure: 30.14 "Hg

Humidity: 55%

Dew Point: 67 °F

Location of CookevilleLocation

Past Weather in Cookeville — Graph

°F

Cookeville Temperature Yesterday

Maximum temperature yesterday: 86 °F (at 2:53 pm)
Minimum temperature yesterday: 62 °F (at 4:53 am)
Average temperature yesterday: 76 °F

High & Low Weather Summary for the Past Weeks

 TemperatureHumidityPressure
High88 °F (Jul 4, 3:53 pm)97% (Jul 2, 1:12 am)30.13 "Hg (Jul 2, 1:12 am)
Low61 °F (Jul 14, 4:53 am)32% (Jul 14, 4:53 pm)29.80 "Hg (Jul 12, 3:53 pm)
Average74 °F76%29.98 "Hg
* Reported Jul 1 10:53 am — Jul 16 10:53 am, Cookeville. Weather by CustomWeather, © 2020

Note: Actual official high and low records may vary slightly from our data, if they occured in-between our weather recording intervals... More about our weather records

Cookeville Weather History for the Previous 24 Hours

Scroll right to see more
 ConditionsComfort  
Time TempWeatherWind HumidityBarometerVisibility
10:53 am
Thu, Jul 16
84 °FSunny.9 mph57%30.13 "Hg10 mi
9:53 am82 °FSunny.8 mph63%30.13 "Hg10 mi
8:53 am80 °FSunny.6 mph69%30.12 "Hg10 mi
7:53 am76 °FSunny.5 mph77%30.12 "Hg10 mi
6:53 am71 °FSunny.5 mph84%30.10 "Hg10 mi
5:53 am69 °FSunny.5 mph84%30.09 "Hg10 mi
4:53 am69 °FSunny.3 mph84%30.06 "Hg10 mi
3:53 am66 °FClear.No wind93%30.05 "Hg10 mi
2:53 am68 °FClear.3 mph87%30.06 "Hg10 mi
1:53 am69 °FClear.7 mph84%30.07 "Hg10 mi
12:53 am72 °FPassing clouds.No wind76%30.04 "Hg10 mi
11:53 pm
Wed, Jul 15
74 °FPassing clouds.3 mph71%30.05 "Hg10 mi
10:53 pm73 °FClear.3 mph74%30.03 "Hg10 mi
9:53 pm74 °FClear.No wind74%30.04 "Hg10 mi
8:53 pm76 °FClear.3 mph67%30.05 "Hg10 mi
7:53 pm76 °FClear.No wind72%30.03 "Hg10 mi
6:53 pm83 °FSunny.No wind55%30.01 "Hg10 mi
5:53 pm85 °FSunny.3 mph48%30.01 "Hg10 mi
4:53 pm86 °FSunny.7 mph46%30.01 "Hg10 mi
3:53 pm86 °FSunny.5 mph42%30.03 "Hg10 mi
2:53 pm86 °FSunny.7 mph45%30.05 "Hg10 mi
1:53 pm85 °FSunny.6 mph50%30.08 "Hg10 mi
12:53 pm85 °FSunny.5 mph45%30.08 "Hg10 mi
Weather by CustomWeather, © 2020

See weather overview